Showing default

AST BLUEBIRD 9, 69590

Orbit data source: Space-Track

AST BLUEBIRD 9, 69590 is a payload satellite owned by AST & Science (US) in LEO that was launched on Wed, 17 Jun 2026 UTC via an FALCON 9 launch vehicle from the Air Force Eastern Test Range (AFETR). Payload-class satellites include a variety of spacecraft equipped with specific instruments for various scientific and technological missions. These include communications satellites like Starlink; space stations such as the ISS; scientific satellites like the Hubble; Earth observation satellites from companies like Planet Labs, Umbra, and HawkEye 360; GPS; miniature CubeSats for education and research; and military/defense satellites.

Loading next visibility...
Identifier
69590, 2026-139B
Orbit
LEO
Country
Flag of USUS
Related business
Manufacturer
AST & Science
Mission
Operational spacecraft
Bus & Motor
BB BLOCK-2, EP
Mass
5,850 kg wet, 5,830 kg dry
Launch date (UTC)
2026-06-17 (2 days ago)
Launch vehicle
FALCON 9
Launch site
Air Force Eastern Test Range (AFETR)
Object type
Payload
Rocket body
Debris
Shape & HBR
Unknown
Radar Cross Section
RCS unknown

Expand to show TLE details & history
Last TLE update: 5 hours ago

TLE from 5 hours ago
0 AST BLUEBIRD 9
1 69590U 26139B   26170.58539410  .00000007  00000-0  17367-4 0  9996
2 69590  52.9927 251.6768 0003613 340.2739  19.8111 15.12664819   342
Epoch: 2026-06-19T14:02Z
TLE epoch observation values (Epoch: 2026-06-19T14:02:58.050Z)
Latitude
-0.00006°
Longitude
133.12262°
Altitude
526.605 km
Speed
7.602 km/s
True Right ascension
16h 46m 42s
True Declination
0° 00' 00"
Sunlit
Object was in full shadow at epoch
Visualization orbit readout
Latitude
Unknown
Longitude
Unknown
Altitude
Unknown
Speed
Unknown
Apparent Right ascension
Unknown
Apparent Declination
Unknown
Sunlit
N/A
Visualization observer readout
Local Sidereal Time
05:54:05
Azimuth
Unknown
Elevation
Unknown
Doppler factor
Unknown
Orbital elements
Apogee altitude
530.854 km
Perigee altitude
525.863 km
Semi-major axis
6,906.495 km
Eccentricity
0.00036
Inclination
52.9927°
RAAN
251.6768°
Arg. of periapsis
340.2739°
True anomaly
19.82514°
Mean anomaly
19.8111°
Eccentric anomaly
19.81812°
Mean motion
3.78143 °/min
Orbital period
95.2 mins
BSTAR
0.000017367
Loading maneuver chart data...
Computing Atmospheric mass density...
Loading historical data...
Loading historical data...
Loading historical data...
Loading historical data...
Loading historical data...
Loading historical data...
Loading historical data...
Other satellites on launch #139 in the year 2026 (2026-06-17 UTC)

Documentation

Showing up to 5 results
|